[[{"header":{"parameterUnit":"m.s-1","parameterCategory":1,"la1":30.2991,"la2":30.254,"lo1":-89.0895,"lo2":-89.0444,"dy":0.0017,"dx":0.0017,"nx":28,"ny":28,"refTime":"2025-06-11T21:00:00:Z","depth":0,"parameterNumber":2,"parameterNumberName":"U-component_of_WINDS"},"data":[0,0,0,0,0,0,0,0,0,0,0,0,0,0,0,0,0,0,0,0,0,0,0,0,0,0,0,0,0,0,0,0,0,0,0,0,0,0,0,0,0,0,0,0,0,0,0,0,0,0,0,0,0,0,0,0,0,0,0.9657,0.9657,0,0.9695,0.9695,0.9695,0.971,0.9709,0.9709,0.9709,0.9746,0.9747,0.9748,0,0,0,0,0,0,0,0,0,0,0,0,0,0.9593,0.9594,0.9657,0.9657,0.9658,0.9695,0.9695,0.9696,0.971,0.9709,0.9709,0.9709,0.9746,0.9747,0.9748,0,0,0,0,0,0,0,0,0,0,0,0,0,0.9625,0.9595,0.9656,0.9669,0.9671,0.9694,0.9695,0.9696,0.971,0.9709,0.9709,0.9709,0.9745,0.9747,0.9749,0.9762,0,0,0.9754,0.9754,0,0,0,0,0,0,0,0,0.9623,0.9627,0.9667,0.9668,0.967,0.9697,0.9686,0.9718,0.971,0.9695,0.9709,0.9709,0.973,0.9733,0.974,0.9764,0.9766,0.9754,0.9755,0.9756,0.9756,0,0,0,0,0,0,0,0.9621,0.9626,0.9672,0.9667,0.9669,0.9672,0.9676,0.9692,0.9713,0.9696,0.9697,0.9702,0.9731,0.9739,0.9741,0.9766,0.9754,0.9755,0.9756,0.9757,0.9802,0.9802,0,0,0,0,0,0,0.9617,0.9624,0.967,0.9673,0.9646,0.9673,0.9678,0.9689,0.9713,0.9716,0.9702,0.9702,0.9736,0.9739,0.9743,0.976,0.9756,0.9757,0.9758,0.9802,0.9802,0.9802,0,0,0,0,0,0,0.9615,0.9621,0.9669,0.9649,0.9655,0.9674,0.9686,0.9689,0.9697,0.9717,0.972,0.9706,0.9736,0.974,0.9757,0.9761,0.9758,0.9759,0.9801,0.9802,0.9802,0.9794,0,0,0,0,0,0,0.9614,0.962,0.9627,0.9649,0.9656,0.9684,0.9687,0.969,0.97,0.9701,0.9722,0.9725,0.9736,0.9755,0.9759,0.9763,0.9761,0.9801,0.9801,0.9802,0.9794,0.9794,0.9794,0,0,0,0,0,0.9611,0.9623,0.9627,0.9632,0.9664,0.9684,0.9688,0.9701,0.9701,0.9707,0.9719,0.9725,0.976,0.9756,0.9761,0.9766,0.9801,0.9801,0.9802,0.9794,0.9794,0.9794,0,0,0,0,0,0,0.96,0.9626,0.9631,0.965,0.9664,0.9686,0.9694,0.97,0.9715,0.9715,0.973,0.9734,0.975,0.976,0.9755,0.978,0.9781,0.9782,0.9773,0.9773,0.9773,0.9771,0.9762,0,0,0,0,0,0.96,0.9615,0.9636,0.965,0.9658,0.9674,0.9684,0.9692,0.9708,0.9714,0.9728,0.9742,0.9756,0.9765,0.978,0.9795,0.98,0.9801,0.9801,0.9801,0.9802,0.981,0.9811,0.9804,0.9804,0.9804,0,0,0.9599,0.9615,0.9624,0.9649,0.9661,0.9675,0.968,0.9695,0.9705,0.9716,0.9733,0.9743,0.976,0.9776,0.9784,0.9785,0.9805,0.9802,0.9801,0.9803,0.9811,0.9812,0.9812,0.9804,0.9804,0.9804,0,0,0.9606,0.962,0.9633,0.9645,0.9664,0.9675,0.9678,0.9699,0.9706,0.9724,0.9732,0.9744,0.9768,0.978,0.9789,0.9798,0.9804,0.9802,0.9802,0.981,0.9811,0.9812,0.9814,0.9815,0.9803,0.9803,0.9803,0,0.9603,0.9625,0.9639,0.9653,0.9663,0.9674,0.9687,0.9698,0.9721,0.9727,0.9728,0.9758,0.977,0.9789,0.9791,0.9798,0.9802,0.98,0.981,0.9811,0.9811,0.9814,0.9815,0.9803,0.9803,0.9803,0.9803,0,0.962,0.9635,0.9643,0.9665,0.9676,0.969,0.9705,0.9714,0.9721,0.9732,0.9748,0.9763,0.978,0.9785,0.9792,0.9804,0.9804,0.9807,0.9808,0.9812,0.9814,0.9816,0.9803,0.9803,0.9803,0.9803,0,0,0.9621,0.965,0.9653,0.9662,0.9684,0.9695,0.9708,0.9726,0.9733,0.9748,0.9759,0.9779,0.9781,0.9791,0.9799,0.9806,0.9812,0.9808,0.9809,0.9808,0.9826,0.9823,0.9825,0.9816,0.9816,0.9816,0.9824,0,0.963,0.9656,0.9668,0.9688,0.9701,0.9711,0.9723,0.9736,0.9746,0.9758,0.9769,0.9783,0.9785,0.9791,0.9799,0.981,0.9816,0.9809,0.9825,0.9826,0.9821,0.9826,0.9824,0.9831,0.9825,0.9826,0.9826,0,0.9645,0.966,0.9681,0.97,0.9706,0.9716,0.9732,0.9744,0.9759,0.9766,0.9777,0.9784,0.9798,0.9797,0.9815,0.9811,0.9818,0.9824,0.9825,0.9827,0.9826,0.9828,0.9834,0.9835,0.9828,0.9828,0.9828,0,0.9643,0.9668,0.9684,0.9692,0.9715,0.9721,0.9731,0.9746,0.9755,0.9769,0.9775,0.979,0.9798,0.9808,0.982,0.9818,0.9836,0.9837,0.9841,0.9841,0.9845,0.9845,0.9852,0.9849,0.9849,0.9849,0.9849,0,0.9652,0.9664,0.9684,0.9693,0.9707,0.972,0.9733,0.9743,0.9757,0.9768,0.9777,0.9787,0.9801,0.9812,0.9821,0.9834,0.9837,0.9843,0.9845,0.9842,0.9841,0.9847,0.9847,0.985,0.985,0.985,0.9849,0,0.9652,0.9666,0.9684,0.9704,0.9709,0.9718,0.9734,0.9744,0.9753,0.9767,0.9771,0.9787,0.98,0.9812,0.9831,0.9836,0.985,0.9852,0.9845,0.9846,0.985,0.9849,0.9861,0.9862,0.9859,0.9859,0.9859,0,0.9657,0.9667,0.9688,0.9696,0.9706,0.9719,0.9729,0.9741,0.9751,0.9768,0.9775,0.979,0.9802,0.9823,0.9836,0.9849,0.9852,0.9855,0.9854,0.9851,0.9852,0.9851,0.9852,0.9855,0.9855,0.9855,0.9855,0,0.9664,0.967,0.9684,0.97,0.9711,0.9724,0.9737,0.9743,0.9758,0.9768,0.9782,0.9792,0.981,0.9824,0.9839,0.9848,0.9854,0.9855,0.9857,0.9854,0.9849,0.9852,0.9845,0.9855,0.9855,0.9855,0.9855,0.9855,0.9667,0.9676,0.9692,0.9707,0.9718,0.973,0.9739,0.975,0.9763,0.9779,0.9786,0.98,0.9814,0.9835,0.9843,0.9854,0.9855,0.9858,0.9858,0.9859,0.9858,0.9847,0.9857,0.9857,0.9857,0.9857,0.9857,0,0.9674,0.9685,0.9698,0.9717,0.9728,0.9733,0.9747,0.9756,0.9769,0.9782,0.9794,0.981,0.9823,0.9836,0.985,0.9856,0.9859,0.9859,0.9859,0.9861,0.9857,0.9854,0.9856,0.9856,0.9856,0.9856,0.9856,0.9856,0.9679,0.9695,0.9703,0.9723,0.9733,0.9748,0.9756,0.9767,0.9777,0.9795,0.9806,0.9814,0.9827,0.9841,0.9854,0.9857,0.9861,0.9861,0.9865,0.9861,0.9861,0.9861,0.9858,0.9862,0.9862,0.9868,0.9868,0.9868]},{"header":{"parameterUnit":"m.s-1","parameterCategory":1,"la1":30.2991,"la2":30.254,"lo1":-89.0895,"lo2":-89.0444,"dy":0.0017,"dx":0.0017,"nx":28,"ny":28,"refTime":"2025-06-11T21:00:00:Z","depth":0,"parameterNumber":3,"parameterNumberName":"V-component_of_WINDS"},"data":[0,0,0,0,0,0,0,0,0,0,0,0,0,0,0,0,0,0,0,0,0,0,0,0,0,0,0,0,0,0,0,0,0,0,0,0,0,0,0,0,0,0,0,0,0,0,0,0,0,0,0,0,0,0,0,0,0,0,5.149,5.149,0,5.1506,5.1507,5.1507,5.1481,5.148,5.1479,5.1479,5.1493,5.1494,5.1495,0,0,0,0,0,0,0,0,0,0,0,0,0,5.1435,5.1436,5.149,5.149,5.149,5.1506,5.1507,5.1507,5.1481,5.148,5.1479,5.1478,5.1493,5.1494,5.1496,0,0,0,0,0,0,0,0,0,0,0,0,0,5.1456,5.1436,5.149,5.148,5.1479,5.1506,5.1507,5.1507,5.1482,5.148,5.1479,5.1478,5.1492,5.1494,5.1496,5.1533,0,0,5.1501,5.1502,0,0,0,0,0,0,0,0,5.1454,5.1458,5.1481,5.148,5.148,5.149,5.1492,5.1516,5.1482,5.1481,5.1479,5.1477,5.1493,5.1495,5.1501,5.1534,5.1534,5.1501,5.1503,5.1503,5.1504,0,0,0,0,0,0,0,5.1453,5.1457,5.1496,5.1481,5.1481,5.1474,5.1475,5.1497,5.1494,5.1481,5.1479,5.1481,5.1492,5.1499,5.1501,5.1535,5.1501,5.1503,5.1504,5.1505,5.16,5.1601,0,0,0,0,0,0,5.1453,5.1456,5.1496,5.1497,5.1464,5.1476,5.1477,5.1488,5.1494,5.1493,5.1482,5.148,5.1497,5.1499,5.1501,5.1546,5.1503,5.1505,5.1506,5.1598,5.16,5.1601,0,0,0,0,0,0,5.1452,5.1457,5.1495,5.1476,5.148,5.1478,5.149,5.1489,5.1496,5.1495,5.1494,5.149,5.1496,5.1499,5.1526,5.1546,5.1506,5.1507,5.1596,5.1599,5.1601,5.1634,0,0,0,0,0,0,5.145,5.1457,5.1471,5.1476,5.1481,5.152,5.1492,5.1491,5.1499,5.1496,5.1502,5.1501,5.1495,5.1523,5.1527,5.1547,5.1509,5.1595,5.1597,5.16,5.1631,5.1637,5.1643,0,0,0,0,0,5.1449,5.148,5.1472,5.1477,5.15,5.1521,5.1524,5.1517,5.1501,5.1515,5.1515,5.1501,5.1543,5.1526,5.1531,5.1552,5.1593,5.1597,5.16,5.1629,5.1636,5.1642,0,0,0,0,0,0,5.1476,5.148,5.1472,5.1506,5.1513,5.1517,5.1535,5.1525,5.1536,5.1533,5.1523,5.1524,5.1553,5.1555,5.1536,5.1588,5.1565,5.157,5.1586,5.1593,5.1598,5.1597,5.151,0,0,0,0,0,5.1486,5.1504,5.1506,5.1536,5.154,5.1537,5.1546,5.154,5.1547,5.155,5.1552,5.1559,5.1573,5.1583,5.1597,5.1632,5.1632,5.1648,5.1654,5.1658,5.1662,5.1681,5.1688,5.1612,5.1612,5.1612,0,0,5.1507,5.1511,5.1523,5.1541,5.1547,5.1565,5.154,5.156,5.1573,5.1553,5.1579,5.158,5.1587,5.1619,5.1632,5.1621,5.1683,5.1663,5.1666,5.1667,5.1685,5.1692,5.1699,5.1614,5.1614,5.1613,0,0,5.1554,5.1559,5.1584,5.1591,5.1599,5.1597,5.1603,5.1609,5.1609,5.1635,5.162,5.1635,5.1661,5.1667,5.1673,5.1723,5.1711,5.1728,5.1757,5.1775,5.1781,5.1786,5.1804,5.1811,5.1732,5.1732,5.1732,0,5.1578,5.1606,5.1598,5.162,5.1628,5.1612,5.1637,5.1643,5.1656,5.1662,5.1649,5.1681,5.1684,5.1717,5.1729,5.1735,5.1741,5.1727,5.1781,5.1786,5.1791,5.1808,5.1815,5.1734,5.1734,5.1733,5.1733,0,5.1635,5.1655,5.1674,5.1688,5.1698,5.1721,5.1717,5.1729,5.1722,5.1721,5.1747,5.1751,5.1765,5.1773,5.1765,5.1804,5.1797,5.1783,5.176,5.18,5.1816,5.1822,5.1737,5.1736,5.1735,5.1735,0,0,5.1699,5.1709,5.1717,5.1723,5.1732,5.1746,5.1768,5.1783,5.1793,5.1802,5.1821,5.1843,5.183,5.1837,5.1831,5.1847,5.1887,5.1831,5.1831,5.1841,5.193,5.194,5.1948,5.1879,5.188,5.1881,5.1929,0,5.1746,5.1786,5.1781,5.1819,5.1836,5.1821,5.1841,5.1848,5.1848,5.1862,5.1861,5.1878,5.1859,5.1864,5.1879,5.1879,5.1904,5.1875,5.1895,5.1896,5.1894,5.1956,5.1967,5.2012,5.1935,5.1936,5.1937,0,5.1807,5.1819,5.1859,5.1866,5.1873,5.1891,5.1904,5.1918,5.1926,5.1925,5.1933,5.1924,5.1946,5.1923,5.1952,5.1933,5.1941,5.1942,5.1943,5.1945,5.1919,5.1959,5.2027,5.2034,5.1946,5.1946,5.1945,0,5.185,5.1877,5.1904,5.191,5.1918,5.1931,5.1935,5.1941,5.1951,5.1962,5.1968,5.1981,5.1989,5.1999,5.1993,5.1977,5.2024,5.2,5.2023,5.2024,5.2034,5.2033,5.2104,5.2039,5.2039,5.2039,5.2039,0,5.1903,5.1928,5.1924,5.1941,5.1968,5.1961,5.1989,5.199,5.1997,5.2013,5.2,5.2016,5.2008,5.2023,5.2018,5.2044,5.2047,5.2046,5.2045,5.2048,5.2048,5.2052,5.2049,5.2041,5.204,5.204,5.204,0,5.1955,5.1954,5.1983,5.1989,5.1991,5.2011,5.2015,5.2031,5.203,5.2051,5.2056,5.2054,5.2071,5.2066,5.2084,5.2082,5.2114,5.2108,5.2111,5.211,5.2133,5.2131,5.2209,5.2219,5.2148,5.2149,5.2149,0,5.1989,5.2009,5.2017,5.2028,5.2033,5.205,5.206,5.2054,5.2064,5.2075,5.2089,5.2105,5.2118,5.2145,5.2145,5.2159,5.2154,5.218,5.2156,5.2158,5.2154,5.2153,5.2155,5.2185,5.2186,5.2186,5.2187,0,5.205,5.2049,5.2064,5.2079,5.2091,5.2103,5.2112,5.2122,5.2116,5.2129,5.2146,5.2156,5.2175,5.2191,5.2204,5.2207,5.2196,5.2195,5.2201,5.2204,5.2205,5.2205,5.2125,5.2193,5.2192,5.2192,5.2192,5.2191,5.2095,5.2111,5.212,5.2137,5.2144,5.2154,5.2169,5.2171,5.2186,5.2201,5.2196,5.2217,5.2224,5.224,5.2245,5.226,5.225,5.2259,5.2261,5.2263,5.2266,5.2203,5.2262,5.2262,5.2262,5.2262,5.2262,0,5.2155,5.216,5.2176,5.2191,5.2205,5.2194,5.2205,5.2216,5.2235,5.2243,5.2256,5.2276,5.2292,5.2293,5.2308,5.2319,5.2315,5.2323,5.2322,5.2323,5.2274,5.2268,5.2327,5.2327,5.2327,5.2327,5.2327,5.2327,5.2188,5.2215,5.2215,5.2245,5.225,5.2271,5.2278,5.2286,5.2293,5.2317,5.233,5.2331,5.2336,5.2351,5.2365,5.2365,5.237,5.2381,5.2379,5.2333,5.2327,5.2321,5.2314,5.2383,5.2383,5.2427,5.2427,5.2428]}]]